Location: Oshawa
(43.9000°N, 78.8670°W)
Time: 05:18:07
(UTC-04:00)

Explorer 11/Cluster Stage 4 - Visible Passes

Search period start: 23 April 2014 00:00
Search period end: 03 May 2014 00:00
Orbit: 468 x 1287 km, 28.8° (Epoch: 21 April)

Date Brightness Start Highest point End Pass type
(mag) Time Alt. Az. Time Alt. Az. Time Alt. Az.
28 Apr 8.8 05:13:26 10° S 05:13:52 10° SSE 05:14:18 10° SSE visible
29 Apr 8.7 05:05:09 10° SSW 05:07:36 12° S 05:09:52 10° SE visible
30 Apr 8.6 04:57:57 10° SSW 05:01:18 15° S 05:04:23 10° SE visible
01 May 8.5 04:51:47 12° SSW 04:54:59 17° S 04:58:37 10° SE visible
02 May 9.2 03:03:10 10° SE 03:03:10 10° SE 03:03:12 10° SE visible
02 May 8.5 04:45:35 14° SSW 04:48:37 19° S 04:52:43 10° SE visible
